TimeEDT,TemperatureF,Dew PointF,Humidity,Sea Level PressureIn,VisibilityMPH,Wind Direction,Wind SpeedMPH,Gust SpeedMPH,PrecipitationIn,Events,Conditions,WindDirDegrees,DateUTC
12:53 AM,55.9,39.0,53,29.80,10.0,WSW,6.9,-,N/A,,Overcast,250,2012-10-20 04:53:00
1:53 AM,55.0,37.9,53,29.81,10.0,WSW,8.1,-,N/A,,Overcast,250,2012-10-20 05:53:00
2:53 AM,54.0,39.0,57,29.82,10.0,WSW,5.8,-,N/A,,Overcast,240,2012-10-20 06:53:00
3:53 AM,50.0,37.9,63,29.83,10.0,SW,5.8,-,N/A,,Partly Cloudy,220,2012-10-20 07:53:00
4:53 AM,50.0,39.0,66,29.83,10.0,SW,3.5,-,N/A,,Partly Cloudy,220,2012-10-20 08:53:00
5:53 AM,52.0,39.9,63,29.84,10.0,Calm,Calm,-,N/A,,Mostly Cloudy,0,2012-10-20 09:53:00
6:53 AM,50.0,42.1,74,29.86,10.0,SW,3.5,-,N/A,,Overcast,230,2012-10-20 10:53:00
7:53 AM,50.0,43.0,77,29.88,10.0,SW,3.5,-,N/A,,Overcast,230,2012-10-20 11:53:00
8:53 AM,52.0,44.1,74,29.89,10.0,WSW,4.6,-,N/A,,Overcast,240,2012-10-20 12:53:00
9:53 AM,54.0,44.1,69,29.91,10.0,SW,3.5,-,N/A,,Overcast,220,2012-10-20 13:53:00
10:53 AM,55.9,39.0,53,29.92,10.0,West,9.2,-,N/A,,Overcast,280,2012-10-20 14:53:00
11:53 AM,57.0,39.0,51,29.92,10.0,SW,5.8,-,N/A,,Scattered Clouds,230,2012-10-20 15:53:00
12:53 PM,59.0,39.9,49,29.92,10.0,Variable,4.6,-,N/A,,Scattered Clouds,0,2012-10-20 16:53:00
1:53 PM,61.0,41.0,48,29.91,10.0,WSW,9.2,-,N/A,,Scattered Clouds,240,2012-10-20 17:53:00
2:53 PM,62.1,42.1,48,29.89,10.0,Variable,4.6,-,N/A,,Scattered Clouds,0,2012-10-20 18:53:00
3:53 PM,61.0,41.0,48,29.89,10.0,WSW,5.8,-,N/A,,Mostly Cloudy,250,2012-10-20 19:53:00
4:53 PM,61.0,42.1,50,29.89,10.0,SW,8.1,-,N/A,,Mostly Cloudy,230,2012-10-20 20:53:00
5:53 PM,61.0,43.0,52,29.90,10.0,WSW,5.8,-,N/A,,Mostly Cloudy,250,2012-10-20 21:53:00
6:53 PM,59.0,44.1,58,29.93,10.0,SW,5.8,-,N/A,,Overcast,220,2012-10-20 22:53:00
7:53 PM,57.0,43.0,59,29.95,10.0,WNW,5.8,-,N/A,,Scattered Clouds,300,2012-10-20 23:53:00
8:53 PM,55.9,43.0,62,29.97,10.0,NNW,3.5,-,N/A,,Mostly Cloudy,330,2012-10-21 00:53:00
9:53 PM,54.0,44.1,69,29.98,10.0,Calm,Calm,-,N/A,,Scattered Clouds,0,2012-10-21 01:53:00
10:53 PM,52.0,43.0,71,30.00,10.0,Calm,Calm,-,N/A,,Partly Cloudy,0,2012-10-21 02:53:00
11:53 PM,52.0,43.0,71,30.01,10.0,Calm,Calm,-,N/A,,Clear,0,2012-10-21 03:53:00